CTV440 WAHI-WIHH

Flight info

Callsign CTV440
Flight time 0h 44m
Altitude 32000
Route CA W17S IMU
Aircraft A320/M-SDE3FGHIRWY/LB1

Departure

Time 2026-04-24 04:10
Airport Yogyakarta International Airport (WAHI)

Arrival

Time 2026-04-24 04:54
Airport Halim Perdanakusuma International Airport (WIHH)
Time Latitude Longitude Altitude Speed Heading
2026-04-24 03:52 -7.90161 110.06024 38 ft 0 kts 20°
2026-04-24 04:01 -7.90173 110.06020 36 ft 4 kts 21°
2026-04-24 04:01 -7.90198 110.06010 35 ft 4 kts 24°
2026-04-24 04:01 -7.90223 110.05998 38 ft 4 kts 29°
2026-04-24 04:01 -7.90245 110.05983 35 ft 4 kts 49°
2026-04-24 04:02 -7.90254 110.05965 34 ft 1 kts 110°
2026-04-24 04:02 -7.90254 110.05964 34 ft 0 kts 111°
2026-04-24 04:05 -7.90254 110.05965 38 ft 1 kts 111°
2026-04-24 04:05 -7.90261 110.05984 37 ft 4 kts 111°
2026-04-24 04:05 -7.90274 110.06017 38 ft 7 kts 111°
2026-04-24 04:05 -7.90297 110.06080 38 ft 13 kts 111°
2026-04-24 04:06 -7.90336 110.06182 38 ft 18 kts 110°
2026-04-24 04:06 -7.90382 110.06309 38 ft 20 kts 110°
2026-04-24 04:06 -7.90431 110.06439 35 ft 20 kts 111°
2026-04-24 04:06 -7.90508 110.06506 37 ft 16 kts 196°
2026-04-24 04:07 -7.90626 110.06490 31 ft 18 kts 134°
2026-04-24 04:07 -7.90673 110.06607 31 ft 18 kts 112°
2026-04-24 04:07 -7.90713 110.06717 33 ft 15 kts 110°
2026-04-24 04:07 -7.90750 110.06818 34 ft 17 kts 110°
2026-04-24 04:08 -7.90798 110.06951 34 ft 23 kts 110°
2026-04-24 04:08 -7.90857 110.07106 35 ft 24 kts 110°
2026-04-24 04:08 -7.90906 110.07220 34 ft 15 kts 137°
2026-04-24 04:08 -7.90975 110.07175 35 ft 14 kts 245°
2026-04-24 04:09 -7.91013 110.07083 36 ft 15 kts 255°
2026-04-24 04:09 -7.90989 110.06974 34 ft 20 kts 290°
2026-04-24 04:09 -7.90870 110.06646 36 ft 86 kts 290°
2026-04-24 04:09 -7.90585 110.05866 38 ft 146 kts 290°
2026-04-24 04:10 -7.90236 110.04819 452 ft 161 kts 288°
2026-04-24 04:10 -7.89780 110.03767 1166 ft 166 kts 310°
2026-04-24 04:10 -7.88841 110.03109 1813 ft 169 kts 333°
2026-04-24 04:11 -7.86541 110.01766 2496 ft 216 kts 330°
2026-04-24 04:11 -7.85180 110.00921 2930 ft 242 kts 329°
2026-04-24 04:11 -7.83710 109.99985 3483 ft 261 kts 328°
2026-04-24 04:11 -7.82150 109.98972 4391 ft 267 kts 328°
2026-04-24 04:12 -7.80586 109.97941 5350 ft 271 kts 328°
2026-04-24 04:12 -7.78996 109.96886 6258 ft 274 kts 328°
2026-04-24 04:12 -7.77412 109.95829 7077 ft 278 kts 328°
2026-04-24 04:12 -7.75771 109.94735 7908 ft 282 kts 328°
2026-04-24 04:13 -7.74141 109.93648 8740 ft 286 kts 328°
2026-04-24 04:13 -7.72452 109.92523 9584 ft 290 kts 328°
2026-04-24 04:13 -7.70772 109.91403 10270 ft 299 kts 328°
2026-04-24 04:13 -7.68954 109.90193 10544 ft 323 kts 328°
2026-04-24 04:14 -7.67025 109.88903 10914 ft 339 kts 328°
2026-04-24 04:14 -7.65056 109.87588 11568 ft 344 kts 328°
2026-04-24 04:14 -7.63023 109.86325 12257 ft 348 kts 330°
2026-04-24 04:14 -7.60892 109.85098 12947 ft 352 kts 332°
2026-04-24 04:15 -7.58760 109.83919 13610 ft 356 kts 332°
2026-04-24 04:15 -7.56566 109.82719 14202 ft 360 kts 332°
2026-04-24 04:15 -7.54350 109.81499 14832 ft 363 kts 332°
2026-04-24 04:15 -7.52118 109.80260 15437 ft 366 kts 332°
2026-04-24 04:16 -7.49902 109.79016 16031 ft 369 kts 331°
2026-04-24 04:16 -7.47653 109.77727 16635 ft 373 kts 328°
2026-04-24 04:16 -7.45590 109.76117 17219 ft 377 kts 317°
2026-04-24 04:16 -7.43868 109.74089 17778 ft 382 kts 305°
2026-04-24 04:17 -7.42469 109.71837 18314 ft 385 kts 303°
2026-04-24 04:17 -7.41047 109.69534 18801 ft 388 kts 303°
2026-04-24 04:17 -7.39598 109.67208 19308 ft 391 kts 303°
2026-04-24 04:17 -7.38137 109.64874 19808 ft 394 kts 303°
2026-04-24 04:18 -7.36679 109.62549 20292 ft 398 kts 303°
2026-04-24 04:18 -7.35190 109.60174 20778 ft 401 kts 303°
2026-04-24 04:18 -7.33692 109.57786 21249 ft 404 kts 303°
2026-04-24 04:18 -7.32198 109.55404 21734 ft 407 kts 302°
2026-04-24 04:19 -7.30681 109.52980 22198 ft 410 kts 302°
2026-04-24 04:19 -7.29152 109.50532 22683 ft 413 kts 302°
2026-04-24 04:19 -7.27611 109.48066 23135 ft 417 kts 302°
2026-04-24 04:19 -7.26058 109.45585 23559 ft 420 kts 302°
2026-04-24 04:20 -7.24509 109.43113 23928 ft 422 kts 302°
2026-04-24 04:20 -7.22934 109.40599 24300 ft 425 kts 302°
2026-04-24 04:20 -7.21361 109.38090 24665 ft 427 kts 302°
2026-04-24 04:20 -7.19768 109.35550 25022 ft 430 kts 302°
2026-04-24 04:21 -7.18161 109.32989 25372 ft 432 kts 302°
2026-04-24 04:21 -7.16565 109.30441 25729 ft 434 kts 302°
2026-04-24 04:21 -7.14944 109.27848 26078 ft 437 kts 302°
2026-04-24 04:21 -7.13334 109.25272 26418 ft 439 kts 302°
2026-04-24 04:22 -7.11693 109.22653 26746 ft 442 kts 302°
2026-04-24 04:22 -7.10044 109.20025 27076 ft 444 kts 302°
2026-04-24 04:22 -7.08386 109.17389 27403 ft 447 kts 302°
2026-04-24 04:22 -7.06735 109.14767 27723 ft 449 kts 302°
2026-04-24 04:23 -7.05058 109.12097 28032 ft 451 kts 302°
2026-04-24 04:23 -7.03374 109.09412 28341 ft 454 kts 302°
2026-04-24 04:23 -7.01677 109.06711 28653 ft 456 kts 302°
2026-04-24 04:23 -6.99990 109.04029 28951 ft 458 kts 302°
2026-04-24 04:24 -6.98277 109.01299 29247 ft 460 kts 302°
2026-04-24 04:24 -6.96558 108.98558 29529 ft 463 kts 302°
2026-04-24 04:24 -6.94854 108.95833 29808 ft 465 kts 302°
2026-04-24 04:24 -6.93123 108.93063 30066 ft 467 kts 302°
2026-04-24 04:25 -6.91382 108.90282 30296 ft 469 kts 302°
2026-04-24 04:25 -6.89652 108.87526 30534 ft 470 kts 302°
2026-04-24 04:25 -6.87888 108.84725 30760 ft 472 kts 302°
2026-04-24 04:25 -6.86149 108.81965 30991 ft 473 kts 302°
2026-04-24 04:26 -6.84377 108.79159 31219 ft 474 kts 302°
2026-04-24 04:26 -6.82603 108.76345 31456 ft 475 kts 302°
2026-04-24 04:26 -6.80839 108.73539 31770 ft 473 kts 302°
2026-04-24 04:26 -6.79081 108.70740 31860 ft 469 kts 302°
2026-04-24 04:27 -6.77388 108.68043 31883 ft 455 kts 302°
2026-04-24 04:27 -6.75710 108.65371 31882 ft 449 kts 302°
2026-04-24 04:27 -6.72377 108.60077 31883 ft 446 kts 303°
2026-04-24 04:28 -6.68296 108.55421 31883 ft 445 kts 322°
2026-04-24 04:28 -6.63013 108.52166 31880 ft 445 kts 331°
2026-04-24 04:29 -6.57627 108.49156 31879 ft 445 kts 331°
2026-04-24 04:29 -6.52432 108.46241 31877 ft 445 kts 331°
2026-04-24 04:30 -6.47021 108.43207 31869 ft 444 kts 331°
2026-04-24 04:30 -6.41637 108.40192 31862 ft 444 kts 331°
2026-04-24 04:31 -6.36265 108.37179 31858 ft 444 kts 330°
2026-04-24 04:31 -6.33733 108.35377 31863 ft 447 kts 319°
2026-04-24 04:31 -6.31553 108.33098 31329 ft 457 kts 308°
2026-04-24 04:32 -6.29880 108.30384 30459 ft 462 kts 295°
2026-04-24 04:32 -6.28790 108.27329 29738 ft 461 kts 284°
2026-04-24 04:32 -6.28058 108.24242 29138 ft 456 kts 284°
2026-04-24 04:32 -6.27288 108.21142 28546 ft 451 kts 284°
2026-04-24 04:33 -6.26520 108.18142 27972 ft 446 kts 284°
2026-04-24 04:33 -6.25743 108.15137 27410 ft 441 kts 284°
2026-04-24 04:33 -6.24983 108.12177 26863 ft 437 kts 284°
2026-04-24 04:33 -6.24232 108.09219 26326 ft 432 kts 284°
2026-04-24 04:34 -6.23498 108.06285 25801 ft 428 kts 284°
2026-04-24 04:34 -6.22786 108.03421 25302 ft 424 kts 284°
2026-04-24 04:34 -6.22073 108.00543 24799 ft 421 kts 284°
2026-04-24 04:34 -6.21412 107.97684 24302 ft 418 kts 279°
2026-04-24 04:35 -6.21191 107.94813 23814 ft 415 kts 271°
2026-04-24 04:35 -6.21140 107.91914 23285 ft 413 kts 271°
2026-04-24 04:35 -6.21082 107.89061 22744 ft 410 kts 271°
2026-04-24 04:35 -6.21016 107.86183 22244 ft 407 kts 272°
2026-04-24 04:36 -6.20946 107.83345 21738 ft 404 kts 272°
2026-04-24 04:36 -6.20875 107.80544 21234 ft 402 kts 272°
2026-04-24 04:36 -6.20806 107.77773 20731 ft 400 kts 272°
2026-04-24 04:36 -6.20738 107.74966 20219 ft 398 kts 272°
2026-04-24 04:37 -6.20673 107.72218 19709 ft 396 kts 272°
2026-04-24 04:37 -6.20609 107.69438 19200 ft 395 kts 272°
2026-04-24 04:37 -6.20548 107.66710 18702 ft 394 kts 272°
2026-04-24 04:37 -6.20488 107.63947 18245 ft 391 kts 272°
2026-04-24 04:38 -6.20427 107.61222 17660 ft 390 kts 272°
2026-04-24 04:38 -6.20363 107.58533 17276 ft 384 kts 272°
2026-04-24 04:38 -6.20295 107.55832 16760 ft 382 kts 272°
2026-04-24 04:38 -6.20229 107.53190 16222 ft 381 kts 272°
2026-04-24 04:39 -6.20162 107.50540 15830 ft 376 kts 272°
2026-04-24 04:39 -6.20094 107.47932 15385 ft 374 kts 272°
2026-04-24 04:39 -6.20024 107.45313 14884 ft 373 kts 272°
2026-04-24 04:39 -6.19956 107.42748 14408 ft 371 kts 272°
2026-04-24 04:40 -6.19889 107.40147 14023 ft 366 kts 272°
2026-04-24 04:40 -6.19824 107.37589 13561 ft 365 kts 272°
2026-04-24 04:40 -6.19760 107.35112 13141 ft 361 kts 272°
2026-04-24 04:40 -6.19696 107.32586 12645 ft 359 kts 272°
2026-04-24 04:41 -6.19843 107.30079 12166 ft 357 kts 259°
2026-04-24 04:41 -6.20583 107.27730 11696 ft 354 kts 245°
2026-04-24 04:41 -6.21823 107.25624 11223 ft 352 kts 237°
2026-04-24 04:41 -6.23154 107.23547 10770 ft 348 kts 237°
2026-04-24 04:42 -6.24443 107.21508 10286 ft 347 kts 238°
2026-04-24 04:42 -6.25712 107.19484 10102 ft 335 kts 238°
2026-04-24 04:42 -6.26920 107.17555 9983 ft 323 kts 238°
2026-04-24 04:42 -6.28100 107.15675 9867 ft 311 kts 238°
2026-04-24 04:43 -6.29227 107.13885 9571 ft 306 kts 238°
2026-04-24 04:43 -6.30385 107.12041 9192 ft 304 kts 238°
2026-04-24 04:43 -6.31483 107.10261 8811 ft 302 kts 238°
2026-04-24 04:43 -6.32584 107.08459 8417 ft 301 kts 238°
2026-04-24 04:44 -6.33680 107.06664 7996 ft 297 kts 238°
2026-04-24 04:44 -6.34752 107.04909 7354 ft 295 kts 238°
2026-04-24 04:44 -6.35799 107.03196 7122 ft 289 kts 238°
2026-04-24 04:44 -6.36865 107.01455 7052 ft 291 kts 238°
2026-04-24 04:45 -6.37931 106.99718 7056 ft 287 kts 238°
2026-04-24 04:45 -6.38930 106.98090 6945 ft 270 kts 238°
2026-04-24 04:45 -6.39914 106.96471 6334 ft 270 kts 241°
2026-04-24 04:45 -6.40586 106.94732 5763 ft 267 kts 258°
2026-04-24 04:46 -6.40917 106.92900 5203 ft 264 kts 260°
2026-04-24 04:46 -6.41099 106.91870 4936 ft 260 kts 260°
2026-04-24 04:46 -6.41392 106.90280 4720 ft 257 kts 259°
2026-04-24 04:47 -6.41731 106.88492 4622 ft 260 kts 259°
2026-04-24 04:47 -6.42069 106.86721 4522 ft 260 kts 259°
2026-04-24 04:47 -6.42410 106.84922 4414 ft 260 kts 259°
2026-04-24 04:47 -6.42745 106.83140 4305 ft 261 kts 259°
2026-04-24 04:48 -6.43080 106.81349 4194 ft 259 kts 261°
2026-04-24 04:48 -6.42986 106.79590 4089 ft 252 kts 292°
2026-04-24 04:48 -6.42022 106.78187 3863 ft 243 kts 324°
2026-04-24 04:48 -6.40561 106.77407 3575 ft 238 kts 338°
2026-04-24 04:49 -6.39048 106.76734 3290 ft 238 kts 338°
2026-04-24 04:49 -6.37523 106.76048 2996 ft 238 kts 338°
2026-04-24 04:49 -6.36033 106.75378 2752 ft 234 kts 339°
2026-04-24 04:49 -6.34568 106.74717 2659 ft 224 kts 340°
2026-04-24 04:50 -6.33115 106.74530 2556 ft 205 kts 20°
2026-04-24 04:50 -6.32044 106.75324 2515 ft 188 kts 61°
2026-04-24 04:50 -6.31678 106.76526 2282 ft 177 kts 75°
2026-04-24 04:50 -6.31360 106.77690 2073 ft 166 kts 73°
2026-04-24 04:51 -6.31040 106.78737 1945 ft 150 kts 73°
2026-04-24 04:51 -6.30742 106.79707 1793 ft 140 kts 73°
2026-04-24 04:51 -6.30460 106.80630 1662 ft 135 kts 72°
2026-04-24 04:51 -6.30170 106.81511 1538 ft 136 kts 64°
2026-04-24 04:52 -6.29775 106.82385 1343 ft 135 kts 63°
2026-04-24 04:52 -6.29378 106.83243 1182 ft 136 kts 65°
2026-04-24 04:52 -6.28991 106.84088 976 ft 133 kts 65°
2026-04-24 04:52 -6.28601 106.84926 799 ft 131 kts 64°
2026-04-24 04:53 -6.28335 106.85478 656 ft 133 kts 63°
2026-04-24 04:53 -6.27819 106.86609 416 ft 132 kts 65°
2026-04-24 04:53 -6.27426 106.87447 237 ft 134 kts 63°
2026-04-24 04:53 -6.27040 106.88295 95 ft 126 kts 63°
2026-04-24 04:54 -6.26777 106.88855 95 ft 51 kts 65°
2026-04-24 04:54 -6.26660 106.89111 95 ft 34 kts 65°
2026-04-24 04:54 -6.26595 106.89189 94 ft 19 kts 13°
2026-04-24 04:54 -6.26518 106.89092 94 ft 14 kts 290°
2026-04-24 04:55 -6.26494 106.89001 93 ft 13 kts 265°
2026-04-24 04:55 -6.26514 106.88947 95 ft 12 kts 244°
2026-04-24 04:55 -6.26549 106.88873 93 ft 11 kts 245°
2026-04-24 04:55 -6.26581 106.88805 93 ft 10 kts 245°
2026-04-24 04:56 -6.26610 106.88742 93 ft 10 kts 245°
2026-04-24 04:56 -6.26636 106.88683 94 ft 9 kts 245°
2026-04-24 04:56 -6.26657 106.88628 93 ft 8 kts 264°
2026-04-24 04:56 -6.26624 106.88609 93 ft 4 kts 341°
2026-04-24 04:57 -6.26611 106.88605 94 ft 0 kts 339°